Regional Weather Roundup
Issued by NWS

Home | Current Version | Previous Version | Graphics & Text | Print | Product List | Glossary On
Versions: 1 2 3 4 5 6 7 8 9 10 11 12 13 14 15 16 17 18 19 20 21 22 23 24 25 26 27 28 29 30 31 32 33 34 35 36 37 38 39 40 41 42 43 44 45 46 47 48 49 50
000
ASUS43 KOAX 231602
RWRNE

WEATHER ROUNDUP FOR NEBRASKA
NATIONAL WEATHER SERVICE OMAHA NE
1100 AM CDT FRI JUN 23 2017

NOTES: SATELLITE DATA IS BEING USED TO AUGMENT CLOUD COVER ABOVE
       12000 FEET.
       "FAIR" INDICATES FEW OR NO CLOUDS BELOW 12,000 FEET WITH NO
       SIGNIFICANT WEATHER AND/OR OBSTRUCTIONS TO VISIBILITY.

  * THESE STATIONS DO NOT REPORT WEATHER SUCH AS RAIN...SNOW OR FOG.

NEZ001>004-019>022-054>056-231700-
NEBRASKA PANHANDLE

CITY           SKY/WX    TMP DP  RH WIND       PRES   REMARKS
SCOTTSBLUFF    SUNNY     63  36  36 NW20G26   30.24F
ALLIANCE       SUNNY     61  35  37 N23       30.21S
CHADRON        SUNNY     62  38  40 N13G24    30.22S
GORDON         FAIR      59  44  56 N16       30.19S
KIMBALL        CLOUDY    55  39  56 NW9G16    30.28S
SIDNEY         CLOUDY    56  39  53 NW16      30.26S
$$

NEZ057>060-069>072-079>082-231700-
SOUTHWEST NEBRASKA

CITY           SKY/WX    TMP DP  RH WIND       PRES   REMARKS
NORTH PLATTE   CLOUDY    69  43  38 NW14G22   30.15F
IMPERIAL       CLOUDY    65  43  44 N12       30.20F
LEXINGTON      CLOUDY    61  45  56 N9        30.14S
MCCOOK         CLOUDY    66  46  48 N15G24    30.17R
OGALLALA       CLOUDY    64  41  42 NW15      30.20R
$$

NEZ005>010-023>029-035>040-094-231700-
NORTH CENTRAL NEBRASKA

CITY           SKY/WX    TMP DP  RH WIND       PRES   REMARKS
VALENTINE      MOSUNNY   66  41  40 NW22G31   30.14R
AINSWORTH      PTSUNNY   65  46  50 NW26G32   30.12S
BROKEN BOW     CLOUDY    66  43  43 N22G32    30.11S
O`NEILL        MOSUNNY   63  50  62 NW23G30   30.09S
ORD            CLOUDY    64  45  49 NW18G30   30.09S
THEDFORD       SUNNY     64  46  53 NW17G26   30.16R
$$

NEZ041-046>049-061>064-073>077-083>087-231700-
SOUTH CENTRAL NEBRASKA

CITY           SKY/WX    TMP DP  RH WIND       PRES   REMARKS
GRAND ISLAND   LGT RAIN  61  50  67 N18       30.11R
AURORA         LGT RAIN  62  48  60 N20       30.09S
HASTINGS       CLOUDY    68  44  42 N26G35    30.13R
HEBRON         CLOUDY    70  46  41 N16G22    30.09R
HOLDREGE       MOSUNNY   64  44  46 N18G26    30.13R
KEARNEY *      CLOUDY    66  43  42 N23G31    30.13R
$$

NEZ011>018-030>034-042>045-231700-
NORTHEAST NEBRASKA

CITY           SKY/WX    TMP DP  RH WIND       PRES   REMARKS
NORFOLK        LGT RAIN  60  49  66 NW17G25   30.02F
ALBION         CLOUDY    60  51  71 NW16G22   30.06S
BLAIR          CLOUDY    65  50  57 NW18G26   30.01R
FREMONT        CLOUDY    66  49  54 NW23G29   30.04S
TEKAMAH        CLOUDY    66  48  52 NW22      30.01R
WAYNE          CLOUDY    62  50  64 NW18G30   30.04R
$$

NEZ050>053-065>068-078-088>093-231700-
SOUTHEAST NEBRASKA

CITY           SKY/WX    TMP DP  RH WIND       PRES   REMARKS
LINCOLN        PTSUNNY   68  48  48 N21G31    30.04R
OMAHA EPPLEY   CLOUDY    69  50  50 NW24G30   29.99R
BEATRICE       CLOUDY    68  49  50 N16G23    30.05R
FALLS CITY     CLOUDY    69  57  65 NW12G20   29.96R
NEBRASKA CITY  CLOUDY    68  54  61 N18G26    29.99R
PLATTSMOUTH    CLOUDY    67  49  52 NW16G29   29.99R
$$

NEZ044-045-051>053-067-231700-
OMAHA AREA

CITY           SKY/WX    TMP DP  RH WIND       PRES   REMARKS
OMAHA EPPLEY   CLOUDY    69  50  50 NW24G30   29.99R
BLAIR          CLOUDY    65  50  57 NW18G26   30.01R
FREMONT        CLOUDY    66  49  54 NW23G29   30.04S
MILLARD        PTSUNNY   69  51  51 NW20G25   30.01R
OFFUTT AFB     PTSUNNY   70  48  46 NE12G21   30.04R
PLATTSMOUTH    CLOUDY    67  49  52 NW16G29   29.99R
WAHOO          PTSUNNY   68  48  48 N21G26    30.03S
$$



USA.gov is the U.S. government's official web portal to all federal, state and local government web resources and services.